Time,TemperatureF,DewpointF,PressureIn,WindDirection,WindDirectionDegrees,WindSpeedMPH,WindSpeedGustMPH,Humidity,HourlyPrecipIn,Conditions,Clouds,dailyrainin,SoftwareType,DateUTC
2013-08-26 00:00:00,76.3,70.1,30.16,NNE,17,0.0,0.0,81,0.00,,,0.00,VWS V13.01,2013-08-26 05:00:00,
2013-08-26 00:05:00,76.1,69.5,30.16,NNE,17,0.0,0.0,80,0.00,,,0.00,VWS V13.01,2013-08-26 05:05:00,
2013-08-26 00:10:00,76.1,69.5,30.16,NNE,17,0.0,0.0,80,0.00,,,0.00,VWS V13.01,2013-08-26 05:10:00,
2013-08-26 00:15:00,76.1,69.5,30.16,NNE,17,0.0,0.0,80,0.00,,,0.00,VWS V13.01,2013-08-26 05:15:00,
2013-08-26 00:20:00,75.8,69.2,30.16,NNE,17,0.0,0.0,80,0.00,,,0.00,VWS V13.01,2013-08-26 05:20:00,
2013-08-26 00:25:00,75.6,69.4,30.16,NNE,17,0.0,0.0,81,0.00,,,0.00,VWS V13.01,2013-08-26 05:25:00,
2013-08-26 00:30:00,75.2,69.7,30.16,NNE,17,0.0,0.0,83,0.00,,,0.00,VWS V13.01,2013-08-26 05:30:00,
2013-08-26 00:35:00,75.1,69.6,30.16,NNE,17,0.0,0.0,83,0.00,,,0.00,VWS V13.01,2013-08-26 05:35:00,
2013-08-26 00:40:00,74.9,69.7,30.16,NNE,17,0.0,0.0,84,0.00,,,0.00,VWS V13.01,2013-08-26 05:40:00,
2013-08-26 00:45:00,74.9,70.1,30.16,NNE,17,0.0,0.0,85,0.00,,,0.00,VWS V13.01,2013-08-26 05:45:00,
2013-08-26 00:50:00,74.7,70.6,30.16,NNE,17,0.0,0.0,87,0.00,,,0.00,VWS V13.01,2013-08-26 05:50:00,
2013-08-26 00:55:00,74.7,70.6,30.16,NNE,17,0.0,0.0,87,0.00,,,0.00,VWS V13.01,2013-08-26 05:55:00,
2013-08-26 01:00:00,74.7,70.9,30.16,NNE,17,0.0,0.0,88,0.00,,,0.00,VWS V13.01,2013-08-26 06:00:00,
2013-08-26 01:05:00,74.7,70.9,30.16,NNE,17,0.0,0.0,88,0.00,,,0.00,VWS V13.01,2013-08-26 06:05:00,
2013-08-26 01:10:00,74.7,71.2,30.16,NNE,17,0.0,0.0,89,0.00,,,0.00,VWS V13.01,2013-08-26 06:10:00,
2013-08-26 01:15:00,74.7,70.9,30.16,NNE,17,0.0,0.0,88,0.00,,,0.00,VWS V13.01,2013-08-26 06:15:00,
2013-08-26 01:20:00,74.5,71.1,30.16,NNE,17,0.0,0.0,89,0.00,,,0.00,VWS V13.01,2013-08-26 06:20:00,
2013-08-26 01:25:00,74.5,71.4,30.16,NNE,18,0.0,0.0,90,0.00,,,0.00,VWS V13.01,2013-08-26 06:25:00,
2013-08-26 01:30:00,74.5,71.7,30.16,NNE,17,0.0,0.0,91,0.00,,,0.00,VWS V13.01,2013-08-26 06:30:00,
2013-08-26 01:35:00,74.5,72.1,30.16,NNE,17,0.0,0.0,92,0.00,,,0.00,VWS V13.01,2013-08-26 06:35:00,
2013-08-26 01:40:00,74.5,71.7,30.16,NNE,17,0.0,0.0,91,0.00,,,0.00,VWS V13.01,2013-08-26 06:40:00,
2013-08-26 01:45:00,74.5,71.7,30.16,NNE,17,0.0,0.0,91,0.00,,,0.00,VWS V13.01,2013-08-26 06:45:00,
2013-08-26 01:50:00,74.5,71.7,30.16,NNE,17,0.0,0.0,91,0.00,,,0.00,VWS V13.01,2013-08-26 06:50:00,
2013-08-26 01:55:00,74.5,71.7,30.16,North,3,0.0,0.0,91,0.00,,,0.00,VWS V13.01,2013-08-26 06:55:00,
2013-08-26 02:00:00,74.5,71.7,30.16,North,3,0.0,0.0,91,0.00,,,0.00,VWS V13.01,2013-08-26 07:00:00,
2013-08-26 02:05:00,74.5,72.1,30.16,North,3,0.0,0.0,92,0.00,,,0.00,VWS V13.01,2013-08-26 07:05:00,
2013-08-26 02:10:00,74.5,72.1,30.16,North,352,0.0,0.0,92,0.00,,,0.00,VWS V13.01,2013-08-26 07:10:00,
2013-08-26 02:15:00,74.7,71.9,30.16,North,356,0.0,0.0,91,0.00,,,0.00,VWS V13.01,2013-08-26 07:15:00,
2013-08-26 02:20:00,74.5,71.7,30.16,North,356,0.0,0.0,91,0.00,,,0.00,VWS V13.01,2013-08-26 07:20:00,
2013-08-26 02:25:00,74.3,71.6,30.16,North,356,0.0,0.0,91,0.00,,,0.00,VWS V13.01,2013-08-26 07:25:00,
2013-08-26 02:30:00,74.2,71.4,30.16,North,356,0.0,0.0,91,0.00,,,0.00,VWS V13.01,2013-08-26 07:30:00,
2013-08-26 02:35:00,74.2,72.0,30.16,North,356,0.0,0.0,93,0.00,,,0.00,VWS V13.01,2013-08-26 07:35:00,
2013-08-26 02:40:00,74.0,72.2,30.16,North,356,0.0,0.0,94,0.00,,,0.00,VWS V13.01,2013-08-26 07:40:00,
2013-08-26 02:45:00,74.2,72.6,30.16,North,356,0.0,0.0,95,0.00,,,0.00,VWS V13.01,2013-08-26 07:45:00,
2013-08-26 02:50:00,74.2,72.6,30.16,North,358,0.0,0.0,95,0.00,,,0.00,VWS V13.01,2013-08-26 07:50:00,
2013-08-26 02:55:00,74.3,72.8,30.16,North,6,0.0,0.0,95,0.00,,,0.00,VWS V13.01,2013-08-26 07:55:00,
2013-08-26 03:00:00,74.3,72.5,30.16,North,6,0.0,0.0,94,0.00,,,0.00,VWS V13.01,2013-08-26 08:00:00,
2013-08-26 03:05:00,74.3,72.5,30.16,North,6,0.0,0.0,94,0.00,,,0.00,VWS V13.01,2013-08-26 08:05:00,
2013-08-26 03:10:00,74.3,72.5,30.16,North,6,0.0,0.0,94,0.00,,,0.00,VWS V13.01,2013-08-26 08:10:00,
2013-08-26 03:15:00,74.2,72.3,30.16,North,6,0.0,0.0,94,0.00,,,0.00,VWS V13.01,2013-08-26 08:15:00,
2013-08-26 03:20:00,74.2,72.3,30.16,North,6,0.0,0.0,94,0.00,,,0.00,VWS V13.01,2013-08-26 08:20:00,
2013-08-26 03:25:00,74.0,72.2,30.16,North,6,0.0,0.0,94,0.00,,,0.00,VWS V13.01,2013-08-26 08:25:00,
2013-08-26 03:30:00,73.8,72.0,30.16,North,6,0.0,0.0,94,0.00,,,0.00,VWS V13.01,2013-08-26 08:30:00,
2013-08-26 03:35:00,73.6,72.1,30.16,North,6,0.0,0.0,95,0.00,,,0.00,VWS V13.01,2013-08-26 08:35:00,
2013-08-26 03:40:00,73.4,72.5,30.16,North,6,0.0,0.0,97,0.00,,,0.00,VWS V13.01,2013-08-26 08:40:00,
2013-08-26 03:45:00,73.3,72.1,30.16,North,6,0.0,0.0,96,0.00,,,0.00,VWS V13.01,2013-08-26 08:45:00,
2013-08-26 03:50:00,73.3,72.7,30.16,North,6,0.0,0.0,98,0.00,,,0.00,VWS V13.01,2013-08-26 08:50:00,
2013-08-26 03:55:00,73.1,72.5,30.16,North,6,0.0,0.0,98,0.00,,,0.00,VWS V13.01,2013-08-26 08:55:00,
2013-08-26 04:00:00,72.9,72.3,30.13,North,9,0.0,0.0,98,0.00,,,0.00,VWS V13.01,2013-08-26 09:00:00,
2013-08-26 04:05:00,72.7,72.4,30.13,North,9,0.0,0.0,99,0.00,,,0.00,VWS V13.01,2013-08-26 09:05:00,
2013-08-26 04:10:00,72.7,72.4,30.13,North,9,0.0,0.0,99,0.00,,,0.00,VWS V13.01,2013-08-26 09:10:00,
2013-08-26 04:15:00,72.7,72.7,30.16,North,9,0.0,0.0,100,0.00,,,0.00,VWS V13.01,2013-08-26 09:15:00,
2013-08-26 04:20:00,72.5,72.6,30.16,North,9,0.0,0.0,100,0.00,,,0.00,VWS V13.01,2013-08-26 09:20:00,
2013-08-26 04:25:00,72.5,72.6,30.16,North,9,0.0,0.0,100,0.00,,,0.00,VWS V13.01,2013-08-26 09:25:00,
2013-08-26 04:30:00,72.4,72.4,30.16,North,9,0.0,0.0,100,0.00,,,0.00,VWS V13.01,2013-08-26 09:30:00,
2013-08-26 04:35:00,72.2,72.2,30.16,North,9,0.0,0.0,100,0.00,,,0.00,VWS V13.01,2013-08-26 09:35:00,
2013-08-26 04:40:00,72.2,72.2,30.16,North,9,0.0,0.0,100,0.00,,,0.00,VWS V13.01,2013-08-26 09:40:00,
2013-08-26 04:45:00,72.2,72.2,30.16,North,9,0.0,0.0,100,0.00,,,0.00,VWS V13.01,2013-08-26 09:45:00,
2013-08-26 04:50:00,72.2,72.2,30.16,North,9,0.0,0.0,100,0.00,,,0.00,VWS V13.01,2013-08-26 09:50:00,
2013-08-26 04:55:00,72.0,72.0,30.16,North,9,0.0,0.0,100,0.00,,,0.00,VWS V13.01,2013-08-26 09:55:00,
2013-08-26 05:00:00,72.2,72.2,30.16,North,9,0.0,0.0,100,0.00,,,0.00,VWS V13.01,2013-08-26 10:00:00,
2013-08-26 05:05:00,72.0,72.0,30.16,North,9,0.0,0.0,100,0.00,,,0.00,VWS V13.01,2013-08-26 10:05:00,
2013-08-26 05:10:00,72.2,72.2,30.16,North,9,0.0,0.0,100,0.00,,,0.00,VWS V13.01,2013-08-26 10:10:00,
2013-08-26 05:15:00,72.2,72.2,30.16,North,9,0.0,0.0,100,0.00,,,0.00,VWS V13.01,2013-08-26 10:15:00,
2013-08-26 05:20:00,72.0,72.0,30.16,North,9,0.0,0.0,100,0.00,,,0.00,VWS V13.01,2013-08-26 10:20:00,
2013-08-26 05:25:00,72.0,72.0,30.16,North,9,0.0,0.0,100,0.00,,,0.00,VWS V13.01,2013-08-26 10:25:00,
2013-08-26 05:30:00,71.8,71.8,30.16,North,9,0.0,0.0,100,0.00,,,0.00,VWS V13.01,2013-08-26 10:30:00,
2013-08-26 05:35:00,71.8,71.8,30.16,North,9,0.0,0.0,100,0.00,,,0.00,VWS V13.01,2013-08-26 10:35:00,
2013-08-26 05:40:00,71.6,71.6,30.16,North,9,0.0,0.0,100,0.00,,,0.00,VWS V13.01,2013-08-26 10:40:00,
2013-08-26 05:44:00,71.6,71.6,30.16,North,9,0.0,0.0,100,0.00,,,0.00,VWS V13.01,2013-08-26 10:44:00,
2013-08-26 05:49:00,71.6,71.6,30.16,North,9,0.0,0.0,100,0.00,,,0.00,VWS V13.01,2013-08-26 10:49:00,
2013-08-26 05:54:00,71.6,71.6,30.16,NNE,23,0.0,0.0,100,0.00,,,0.00,VWS V13.01,2013-08-26 10:54:00,
2013-08-26 05:59:00,71.8,71.8,30.16,NNE,16,0.0,0.0,100,0.00,,,0.00,VWS V13.01,2013-08-26 10:59:00,
2013-08-26 06:04:00,71.8,71.8,30.16,NNE,26,0.0,0.0,100,0.00,,,0.00,VWS V13.01,2013-08-26 11:04:00,
2013-08-26 06:09:00,71.8,71.8,30.16,NNE,26,0.0,0.0,100,0.00,,,0.00,VWS V13.01,2013-08-26 11:09:00,
2013-08-26 06:14:00,71.8,71.8,30.16,NNE,26,0.0,0.0,100,0.00,,,0.00,VWS V13.01,2013-08-26 11:14:00,
2013-08-26 06:19:00,71.6,71.6,30.16,NNE,26,0.0,0.0,100,0.00,,,0.00,VWS V13.01,2013-08-26 11:19:00,
2013-08-26 06:24:00,71.6,71.6,30.16,NNE,26,0.0,0.0,100,0.00,,,0.00,VWS V13.01,2013-08-26 11:24:00,
2013-08-26 06:29:00,71.6,71.6,30.19,NNE,26,0.0,0.0,100,0.00,,,0.00,VWS V13.01,2013-08-26 11:29:00,
2013-08-26 06:34:00,71.6,71.6,30.19,NNE,26,0.0,0.0,100,0.00,,,0.00,VWS V13.01,2013-08-26 11:34:00,
2013-08-26 06:39:00,71.6,71.6,30.19,NNE,26,0.0,0.0,100,0.00,,,0.00,VWS V13.01,2013-08-26 11:39:00,
2013-08-26 06:44:00,71.6,71.6,30.19,NNE,26,0.0,0.0,100,0.00,,,0.00,VWS V13.01,2013-08-26 11:44:00,
2013-08-26 06:49:00,71.5,71.5,30.19,NNE,26,0.0,0.0,100,0.00,,,0.00,VWS V13.01,2013-08-26 11:49:00,
2013-08-26 06:54:00,71.5,71.5,30.19,North,6,0.0,0.0,100,0.00,,,0.00,VWS V13.01,2013-08-26 11:54:00,
2013-08-26 06:59:00,71.6,71.6,30.19,North,6,0.0,0.0,100,0.00,,,0.00,VWS V13.01,2013-08-26 11:59:00,
2013-08-26 07:04:00,71.6,71.6,30.19,North,6,0.0,0.0,100,0.00,,,0.00,VWS V13.01,2013-08-26 12:04:00,
2013-08-26 07:09:00,71.6,71.6,30.19,North,6,0.0,0.0,100,0.00,,,0.00,VWS V13.01,2013-08-26 12:09:00,
2013-08-26 07:14:00,71.8,71.8,30.19,North,1,0.0,0.0,100,0.00,,,0.00,VWS V13.01,2013-08-26 12:14:00,
2013-08-26 07:19:00,72.0,72.0,30.19,North,7,0.0,0.0,100,0.00,,,0.00,VWS V13.01,2013-08-26 12:19:00,
2013-08-26 07:24:00,72.2,72.2,30.19,North,4,0.0,0.0,100,0.00,,,0.00,VWS V13.01,2013-08-26 12:24:00,
2013-08-26 07:29:00,72.4,72.4,30.19,North,1,0.0,0.0,100,0.00,,,0.00,VWS V13.01,2013-08-26 12:29:00,
2013-08-26 07:34:00,72.5,72.6,30.19,North,353,0.0,0.0,100,0.00,,,0.00,VWS V13.01,2013-08-26 12:34:00,
2013-08-26 07:39:00,72.7,72.7,30.19,NNE,19,0.0,0.0,100,0.00,,,0.00,VWS V13.01,2013-08-26 12:39:00,
2013-08-26 07:44:00,73.1,73.1,30.19,NE,38,0.0,0.0,100,0.00,,,0.00,VWS V13.01,2013-08-26 12:44:00,
2013-08-26 07:49:00,73.4,73.4,30.19,NE,38,0.0,0.0,100,0.00,,,0.00,VWS V13.01,2013-08-26 12:49:00,
2013-08-26 07:54:00,73.8,73.8,30.19,NE,38,0.0,0.0,100,0.00,,,0.00,VWS V13.01,2013-08-26 12:54:00,
2013-08-26 07:59:00,74.2,74.2,30.19,NNW,327,0.0,0.0,100,0.00,,,0.00,VWS V13.01,2013-08-26 12:59:00,
2013-08-26 08:04:00,74.5,74.5,30.19,NE,56,2.2,2.2,100,0.00,,,0.00,VWS V13.01,2013-08-26 13:04:00,
2013-08-26 08:09:00,75.1,75.1,30.19,ESE,102,2.7,2.7,100,0.00,,,0.00,VWS V13.01,2013-08-26 13:09:00,
2013-08-26 08:14:00,75.8,74.9,30.19,NE,53,3.1,3.1,97,0.00,,,0.00,VWS V13.01,2013-08-26 13:14:00,
2013-08-26 08:19:00,76.3,74.2,30.19,NE,43,0.0,0.0,93,0.00,,,0.00,VWS V13.01,2013-08-26 13:19:00,
2013-08-26 08:24:00,77.2,72.7,30.19,ENE,57,2.2,2.7,86,0.00,,,0.00,VWS V13.01,2013-08-26 13:24:00,
2013-08-26 08:29:00,77.6,71.7,30.16,ENE,58,3.1,3.1,82,0.00,,,0.00,VWS V13.01,2013-08-26 13:29:00,
2013-08-26 08:34:00,77.9,71.6,30.16,North,357,2.7,3.1,81,0.00,,,0.00,VWS V13.01,2013-08-26 13:34:00,
2013-08-26 08:39:00,78.3,71.3,30.16,North,4,2.7,2.7,79,0.00,,,0.00,VWS V13.01,2013-08-26 13:39:00,
2013-08-26 08:44:00,78.3,71.6,30.19,NE,47,2.7,3.1,80,0.00,,,0.00,VWS V13.01,2013-08-26 13:44:00,
2013-08-26 08:49:00,78.7,71.2,30.19,NE,50,2.7,3.6,78,0.00,,,0.00,VWS V13.01,2013-08-26 13:49:00,
2013-08-26 08:54:00,79.0,70.8,30.19,NE,35,2.7,2.7,76,0.00,,,0.00,VWS V13.01,2013-08-26 13:54:00,
2013-08-26 08:59:00,79.2,71.0,30.19,East,93,2.2,2.2,76,0.00,,,0.00,VWS V13.01,2013-08-26 13:59:00,
2013-08-26 09:04:00,79.4,71.2,30.19,East,82,2.7,2.7,76,0.00,,,0.00,VWS V13.01,2013-08-26 14:04:00,
2013-08-26 09:09:00,79.9,70.9,30.19,NE,38,2.2,2.2,74,0.00,,,0.00,VWS V13.01,2013-08-26 14:09:00,
2013-08-26 09:14:00,80.5,71.0,30.19,NNW,340,2.2,3.6,73,0.00,,,0.00,VWS V13.01,2013-08-26 14:14:00,
2013-08-26 09:19:00,80.6,70.8,30.19,ENE,66,3.1,4.9,72,0.00,,,0.00,VWS V13.01,2013-08-26 14:19:00,
2013-08-26 09:24:00,81.0,70.7,30.19,NNW,337,2.7,3.6,71,0.00,,,0.00,VWS V13.01,2013-08-26 14:24:00,
2013-08-26 09:29:00,81.5,71.2,30.19,East,100,3.6,3.6,71,0.00,,,0.00,VWS V13.01,2013-08-26 14:29:00,
2013-08-26 09:34:00,81.9,71.6,30.19,ENE,57,0.0,2.2,71,0.00,,,0.00,VWS V13.01,2013-08-26 14:34:00,
2013-08-26 09:39:00,82.3,71.5,30.19,NE,56,4.0,4.0,70,0.00,,,0.00,VWS V13.01,2013-08-26 14:39:00,
2013-08-26 09:44:00,82.6,71.0,30.19,SE,128,4.0,5.4,68,0.00,,,0.00,VWS V13.01,2013-08-26 14:44:00,
2013-08-26 09:49:00,81.7,70.6,30.19,NNE,31,3.6,3.6,69,0.00,,,0.00,VWS V13.01,2013-08-26 14:49:00,
2013-08-26 09:54:00,81.9,70.3,30.19,NNE,25,2.7,2.7,68,0.00,,,0.00,VWS V13.01,2013-08-26 14:54:00,
2013-08-26 09:59:00,82.6,71.4,30.19,SSE,150,2.7,3.6,69,0.00,,,0.00,VWS V13.01,2013-08-26 14:59:00,
2013-08-26 10:04:00,82.1,70.5,30.19,ENE,73,4.0,4.5,68,0.00,,,0.00,VWS V13.01,2013-08-26 15:04:00,
2013-08-26 10:09:00,81.9,70.3,30.19,ESE,113,3.1,5.4,68,0.00,,,0.00,VWS V13.01,2013-08-26 15:09:00,
2013-08-26 10:14:00,81.9,70.3,30.19,NE,53,3.1,3.6,68,0.00,,,0.00,VWS V13.01,2013-08-26 15:14:00,
2013-08-26 10:19:00,82.3,70.2,30.19,East,83,3.6,5.4,67,0.00,,,0.00,VWS V13.01,2013-08-26 15:19:00,
2013-08-26 10:24:00,82.4,70.8,30.19,ESE,102,5.4,7.2,68,0.00,,,0.00,VWS V13.01,2013-08-26 15:24:00,
2013-08-26 10:29:00,82.1,70.5,30.19,SE,138,0.0,2.2,68,0.00,,,0.00,VWS V13.01,2013-08-26 15:29:00,
2013-08-26 10:34:00,82.6,71.0,30.19,SE,143,2.7,6.3,68,0.00,,,0.00,VWS V13.01,2013-08-26 15:34:00,
2013-08-26 10:39:00,82.8,71.2,30.19,SW,227,2.7,3.6,68,0.00,,,0.00,VWS V13.01,2013-08-26 15:39:00,
2013-08-26 10:44:00,82.6,71.0,30.19,ENE,64,4.0,4.0,68,0.00,,,0.00,VWS V13.01,2013-08-26 15:44:00,
2013-08-26 10:49:00,82.6,70.6,30.19,ESE,123,3.6,3.6,67,0.00,,,0.00,VWS V13.01,2013-08-26 15:49:00,
2013-08-26 10:54:00,83.0,70.9,30.19,South,170,2.7,2.7,67,0.00,,,0.00,VWS V13.01,2013-08-26 15:54:00,
2013-08-26 10:59:00,83.7,71.1,30.19,SE,135,5.8,5.8,66,0.00,,,0.00,VWS V13.01,2013-08-26 15:59:00,
2013-08-26 11:04:00,83.5,71.0,30.19,SSE,160,0.0,2.2,66,0.00,,,0.00,VWS V13.01,2013-08-26 16:04:00,
2013-08-26 11:09:00,83.5,70.5,30.19,South,175,3.1,4.9,65,0.00,,,0.00,VWS V13.01,2013-08-26 16:09:00,
2013-08-26 11:14:00,84.1,71.0,30.19,SW,226,2.2,2.7,65,0.00,,,0.00,VWS V13.01,2013-08-26 16:14:00,
2013-08-26 11:18:00,85.1,72.5,30.19,North,353,2.7,3.1,66,0.00,,,0.00,VWS V13.01,2013-08-26 16:18:00,
2013-08-26 11:23:00,85.9,70.9,30.19,ENE,61,3.1,3.1,61,0.00,,,0.00,VWS V13.01,2013-08-26 16:23:00,
2013-08-26 11:28:00,86.0,70.6,30.19,NE,44,3.6,3.6,60,0.00,,,0.00,VWS V13.01,2013-08-26 16:28:00,
2013-08-26 11:33:00,86.0,71.0,30.19,West,272,2.7,2.7,61,0.00,,,0.00,VWS V13.01,2013-08-26 16:33:00,
2013-08-26 11:38:00,86.0,71.0,30.19,West,265,2.2,2.7,61,0.00,,,0.00,VWS V13.01,2013-08-26 16:38:00,
2013-08-26 11:43:00,86.0,71.0,30.19,SE,134,3.6,3.6,61,0.00,,,0.00,VWS V13.01,2013-08-26 16:43:00,
2013-08-26 11:48:00,85.7,70.7,30.19,SE,136,2.7,3.6,61,0.00,,,0.00,VWS V13.01,2013-08-26 16:48:00,
2013-08-26 11:53:00,85.9,70.9,30.19,ESE,113,3.1,3.6,61,0.00,,,0.00,VWS V13.01,2013-08-26 16:53:00,
2013-08-26 11:58:00,85.9,70.4,30.19,South,179,5.8,5.8,60,0.00,,,0.00,VWS V13.01,2013-08-26 16:58:00,
2013-08-26 12:03:00,85.1,69.7,30.19,SE,125,4.9,5.8,60,0.00,,,0.00,VWS V13.01,2013-08-26 17:03:00,
2013-08-26 12:08:00,85.0,69.0,30.19,ESE,112,4.0,5.4,59,0.00,,,0.00,VWS V13.01,2013-08-26 17:08:00,
2013-08-26 12:16:00,86.2,70.7,30.19,NE,49,3.6,4.5,60,0.00,,,0.00,VWS V13.01,2013-08-26 17:16:00,
2013-08-26 12:21:00,86.6,70.1,30.19,ENE,70,4.0,4.0,58,0.00,,,0.00,VWS V13.01,2013-08-26 17:21:00,
2013-08-26 12:26:00,86.8,70.2,30.19,NE,50,3.1,4.0,58,0.00,,,0.00,VWS V13.01,2013-08-26 17:26:00,
2013-08-26 12:31:00,86.9,70.9,30.19,ESE,116,4.9,4.9,59,0.00,,,0.00,VWS V13.01,2013-08-26 17:31:00,
2013-08-26 12:36:00,87.5,70.9,30.19,ESE,122,4.9,4.9,58,0.00,,,0.00,VWS V13.01,2013-08-26 17:36:00,
2013-08-26 12:41:00,87.3,70.7,30.19,South,178,3.6,4.0,58,0.00,,,0.00,VWS V13.01,2013-08-26 17:41:00,
2013-08-26 12:46:00,87.5,70.9,30.16,South,171,3.6,5.4,58,0.00,,,0.00,VWS V13.01,2013-08-26 17:46:00,
2013-08-26 12:51:00,87.3,70.2,30.16,NE,42,2.7,3.6,57,0.00,,,0.00,VWS V13.01,2013-08-26 17:51:00,
2013-08-26 12:56:00,87.7,70.6,30.16,NE,46,2.2,2.7,57,0.00,,,0.00,VWS V13.01,2013-08-26 17:56:00,
2013-08-26 13:01:00,88.2,70.5,30.16,East,89,5.4,5.4,56,0.00,,,0.00,VWS V13.01,2013-08-26 18:01:00,
2013-08-26 13:06:00,88.0,70.9,30.16,SE,125,3.6,4.0,57,0.00,,,0.00,VWS V13.01,2013-08-26 18:06:00,
2013-08-26 13:11:00,88.7,71.0,30.16,North,4,2.7,3.1,56,0.00,,,0.00,VWS V13.01,2013-08-26 18:11:00,
2013-08-26 13:16:00,88.9,71.2,30.16,SSE,165,4.0,6.3,56,0.00,,,0.00,VWS V13.01,2013-08-26 18:16:00,
2013-08-26 13:21:00,88.6,70.9,30.16,South,185,3.1,4.5,56,0.00,,,0.00,VWS V13.01,2013-08-26 18:21:00,
2013-08-26 13:26:00,88.9,71.2,30.16,NE,53,4.0,5.4,56,0.00,,,0.00,VWS V13.01,2013-08-26 18:26:00,
2013-08-26 13:31:00,89.1,70.8,30.16,ENE,67,3.6,4.0,55,0.00,,,0.00,VWS V13.01,2013-08-26 18:31:00,
2013-08-26 13:36:00,88.9,71.2,30.16,SSE,156,3.6,5.8,56,0.00,,,0.00,VWS V13.01,2013-08-26 18:36:00,
2013-08-26 13:41:00,89.1,70.8,30.16,ENE,58,4.0,6.3,55,0.00,,,0.00,VWS V13.01,2013-08-26 18:41:00,
2013-08-26 13:46:00,89.5,71.7,30.16,SSE,147,3.1,6.3,56,0.00,,,0.00,VWS V13.01,2013-08-26 18:46:00,
2013-08-26 13:51:00,89.3,71.0,30.16,SE,134,4.0,5.4,55,0.00,,,0.00,VWS V13.01,2013-08-26 18:51:00,
2013-08-26 13:56:00,89.3,70.5,30.16,East,88,6.3,8.1,54,0.00,,,0.00,VWS V13.01,2013-08-26 18:56:00,
2013-08-26 14:01:00,89.5,70.6,30.13,ESE,118,4.0,5.4,54,0.00,,,0.00,VWS V13.01,2013-08-26 19:01:00,
2013-08-26 14:06:00,89.6,70.2,30.13,ESE,115,4.0,6.3,53,0.00,,,0.00,VWS V13.01,2013-08-26 19:06:00,
2013-08-26 14:11:00,89.8,71.5,30.13,ENE,70,3.6,4.9,55,0.00,,,0.00,VWS V13.01,2013-08-26 19:11:00,
2013-08-26 14:16:00,90.4,70.9,30.13,ENE,70,4.0,5.8,53,0.00,,,0.00,VWS V13.01,2013-08-26 19:16:00,
2013-08-26 14:20:00,90.2,71.3,30.13,East,100,3.6,5.4,54,0.00,,,0.00,VWS V13.01,2013-08-26 19:20:00,
2013-08-26 14:25:00,90.2,71.8,30.13,East,90,4.9,4.9,55,0.00,,,0.00,VWS V13.01,2013-08-26 19:25:00,
2013-08-26 14:30:00,90.4,70.4,30.13,ENE,78,2.7,4.0,52,0.00,,,0.00,VWS V13.01,2013-08-26 19:30:00,
2013-08-26 14:35:00,90.4,70.9,30.13,South,177,7.6,7.6,53,0.00,,,0.00,VWS V13.01,2013-08-26 19:35:00,
2013-08-26 14:40:00,89.8,70.4,30.13,South,169,4.0,5.4,53,0.00,,,0.00,VWS V13.01,2013-08-26 19:40:00,
2013-08-26 14:45:00,89.8,71.5,30.13,ESE,105,4.0,4.0,55,0.00,,,0.00,VWS V13.01,2013-08-26 19:45:00,
2013-08-26 14:50:00,89.8,69.9,30.13,ENE,68,5.4,6.3,52,0.00,,,0.00,VWS V13.01,2013-08-26 19:50:00,
2013-08-26 14:55:00,89.6,69.7,30.13,NE,54,5.8,5.8,52,0.00,,,0.00,VWS V13.01,2013-08-26 19:55:00,
2013-08-26 15:00:00,90.2,70.8,30.13,South,183,2.2,3.6,53,0.00,,,0.00,VWS V13.01,2013-08-26 20:00:00,
2013-08-26 15:05:00,90.9,70.8,30.13,ENE,58,4.0,4.0,52,0.00,,,0.00,VWS V13.01,2013-08-26 20:05:00,
2013-08-26 15:10:00,91.1,70.4,30.13,South,185,3.6,3.6,51,0.00,,,0.00,VWS V13.01,2013-08-26 20:10:00,
2013-08-26 15:15:00,90.9,71.4,30.13,SSE,164,5.4,5.4,53,0.00,,,0.00,VWS V13.01,2013-08-26 20:15:00,
2013-08-26 15:20:00,90.4,70.9,30.13,East,99,2.7,2.7,53,0.00,,,0.00,VWS V13.01,2013-08-26 20:20:00,
2013-08-26 15:25:00,90.9,70.8,30.13,SE,128,3.1,3.1,52,0.00,,,0.00,VWS V13.01,2013-08-26 20:25:00,
2013-08-26 15:30:00,91.3,70.6,30.10,ENE,73,2.2,3.1,51,0.00,,,0.00,VWS V13.01,2013-08-26 20:30:00,
2013-08-26 15:35:00,91.6,70.4,30.10,SSE,147,4.0,4.0,50,0.00,,,0.00,VWS V13.01,2013-08-26 20:35:00,
2013-08-26 15:40:00,91.4,71.3,30.10,ESE,105,3.1,3.6,52,0.00,,,0.00,VWS V13.01,2013-08-26 20:40:00,
2013-08-26 15:45:00,90.7,69.5,30.10,South,181,4.0,4.9,50,0.00,,,0.00,VWS V13.01,2013-08-26 20:45:00,
2013-08-26 15:50:00,90.2,69.6,30.10,SSE,162,0.0,3.6,51,0.00,,,0.00,VWS V13.01,2013-08-26 20:50:00,
2013-08-26 15:55:00,90.7,70.1,30.10,South,173,5.4,5.4,51,0.00,,,0.00,VWS V13.01,2013-08-26 20:55:00,
2013-08-26 16:00:00,90.4,70.9,30.10,ESE,119,4.0,4.0,53,0.00,,,0.00,VWS V13.01,2013-08-26 21:00:00,
2013-08-26 16:05:00,90.5,69.9,30.10,East,91,5.4,5.4,51,0.00,,,0.00,VWS V13.01,2013-08-26 21:05:00,
2013-08-26 16:10:00,90.7,70.7,30.10,SSE,150,2.7,2.7,52,0.00,,,0.00,VWS V13.01,2013-08-26 21:10:00,
2013-08-26 16:15:00,91.4,71.3,30.10,ESE,105,4.0,4.0,52,0.00,,,0.00,VWS V13.01,2013-08-26 21:15:00,
2013-08-26 16:20:00,91.6,70.4,30.10,SE,131,4.0,4.0,50,0.00,,,0.00,VWS V13.01,2013-08-26 21:20:00,
2013-08-26 16:25:00,91.3,70.6,30.10,ESE,114,2.2,3.1,51,0.00,,,0.00,VWS V13.01,2013-08-26 21:25:00,
2013-08-26 16:30:00,91.3,70.0,30.10,SSE,153,3.6,6.3,50,0.00,,,0.00,VWS V13.01,2013-08-26 21:30:00,
2013-08-26 16:35:00,90.7,69.5,30.10,South,181,2.7,2.7,50,0.00,,,0.00,VWS V13.01,2013-08-26 21:35:00,
2013-08-26 16:40:00,90.7,69.5,30.10,ESE,109,3.1,3.1,50,0.00,,,0.00,VWS V13.01,2013-08-26 21:40:00,
2013-08-26 16:45:00,90.7,70.1,30.07,NE,35,3.1,3.1,51,0.00,,,0.00,VWS V13.01,2013-08-26 21:45:00,
2013-08-26 16:50:00,90.9,69.7,30.07,East,99,3.6,3.6,50,0.00,,,0.00,VWS V13.01,2013-08-26 21:50:00,
2013-08-26 16:55:00,91.1,69.3,30.07,ENE,69,3.1,3.6,49,0.00,,,0.00,VWS V13.01,2013-08-26 21:55:00,
2013-08-26 17:00:00,90.9,69.7,30.07,ESE,122,2.7,2.7,50,0.00,,,0.00,VWS V13.01,2013-08-26 22:00:00,
2013-08-26 17:05:00,90.9,70.3,30.07,South,182,6.3,6.3,51,0.00,,,0.00,VWS V13.01,2013-08-26 22:05:00,
2013-08-26 17:10:00,90.5,69.4,30.07,SE,143,4.0,4.0,50,0.00,,,0.00,VWS V13.01,2013-08-26 22:10:00,
2013-08-26 17:15:00,90.4,69.8,30.07,SE,125,2.7,4.9,51,0.00,,,0.00,VWS V13.01,2013-08-26 22:15:00,
2013-08-26 17:20:00,90.4,69.8,30.07,East,84,3.6,3.6,51,0.00,,,0.00,VWS V13.01,2013-08-26 22:20:00,
2013-08-26 17:25:00,90.7,70.1,30.07,SE,126,3.6,3.6,51,0.00,,,0.00,VWS V13.01,2013-08-26 22:25:00,
2013-08-26 17:30:00,90.7,69.5,30.07,ENE,75,2.2,2.7,50,0.00,,,0.00,VWS V13.01,2013-08-26 22:30:00,
2013-08-26 17:35:00,90.5,69.4,30.07,NE,39,2.7,3.1,50,0.00,,,0.00,VWS V13.01,2013-08-26 22:35:00,
2013-08-26 17:40:00,90.7,69.5,30.07,SE,128,4.0,4.0,50,0.00,,,0.00,VWS V13.01,2013-08-26 22:40:00,
2013-08-26 17:45:00,90.7,70.1,30.07,ESE,123,2.2,3.6,51,0.00,,,0.00,VWS V13.01,2013-08-26 22:45:00,
2013-08-26 17:50:00,90.7,70.1,30.07,SSE,155,0.0,2.2,51,0.00,,,0.00,VWS V13.01,2013-08-26 22:50:00,
2013-08-26 17:55:00,90.9,69.7,30.07,South,169,2.2,2.7,50,0.00,,,0.00,VWS V13.01,2013-08-26 22:55:00,
2013-08-26 18:00:00,90.9,69.1,30.07,SE,130,2.7,3.1,49,0.00,,,0.00,VWS V13.01,2013-08-26 23:00:00,
2013-08-26 18:05:00,90.7,68.9,30.07,SE,138,2.2,2.2,49,0.00,,,0.00,VWS V13.01,2013-08-26 23:05:00,
2013-08-26 18:10:00,90.5,68.8,30.07,SSE,154,2.7,2.7,49,0.00,,,0.00,VWS V13.01,2013-08-26 23:10:00,
2013-08-26 18:15:00,90.4,69.2,30.07,SSE,159,2.7,3.6,50,0.00,,,0.00,VWS V13.01,2013-08-26 23:15:00,
2013-08-26 18:20:00,90.2,69.0,30.07,SSE,158,2.7,2.7,50,0.00,,,0.00,VWS V13.01,2013-08-26 23:20:00,
2013-08-26 18:25:00,90.2,69.0,30.07,South,172,4.0,4.0,50,0.00,,,0.00,VWS V13.01,2013-08-26 23:25:00,
2013-08-26 18:30:00,90.2,69.6,30.07,SSE,160,0.0,2.2,51,0.00,,,0.00,VWS V13.01,2013-08-26 23:30:00,
2013-08-26 18:35:00,90.2,69.0,30.07,SE,124,2.7,4.0,50,0.00,,,0.00,VWS V13.01,2013-08-26 23:35:00,
2013-08-26 18:40:00,89.8,69.3,30.07,ESE,115,0.0,0.0,51,0.00,,,0.00,VWS V13.01,2013-08-26 23:40:00,
2013-08-26 18:45:00,89.5,69.5,30.07,ESE,108,0.0,0.0,52,0.00,,,0.00,VWS V13.01,2013-08-26 23:45:00,
2013-08-26 18:50:00,89.1,69.8,30.07,ESE,109,0.0,0.0,53,0.00,,,0.00,VWS V13.01,2013-08-26 23:50:00,
2013-08-26 18:55:00,88.9,69.6,30.07,SE,127,2.2,2.7,53,0.00,,,0.00,VWS V13.01,2013-08-26 23:55:00,
2013-08-26 19:00:00,88.6,69.8,30.07,East,101,2.7,3.1,54,0.00,,,0.00,VWS V13.01,2013-08-27 00:00:00,
2013-08-26 19:05:00,87.8,69.1,30.07,SE,131,2.7,2.7,54,0.00,,,0.00,VWS V13.01,2013-08-27 00:05:00,
2013-08-26 19:10:00,87.5,68.8,30.07,ESE,117,2.2,2.7,54,0.00,,,0.00,VWS V13.01,2013-08-27 00:10:00,
2013-08-26 19:15:00,87.1,69.0,30.07,East,95,0.0,2.2,55,0.00,,,0.00,VWS V13.01,2013-08-27 00:15:00,
2013-08-26 19:20:00,86.8,68.7,30.07,ESE,119,0.0,0.0,55,0.00,,,0.00,VWS V13.01,2013-08-27 00:20:00,
2013-08-26 19:25:00,86.6,69.0,30.07,ESE,102,0.0,0.0,56,0.00,,,0.00,VWS V13.01,2013-08-27 00:25:00,
2013-08-26 19:30:00,86.2,68.7,30.07,ESE,102,0.0,0.0,56,0.00,,,0.00,VWS V13.01,2013-08-27 00:30:00,
2013-08-26 19:35:00,85.9,68.4,30.07,ESE,102,0.0,0.0,56,0.00,,,0.00,VWS V13.01,2013-08-27 00:35:00,
2013-08-26 19:40:00,85.5,68.0,30.07,ESE,102,0.0,0.0,56,0.00,,,0.00,VWS V13.01,2013-08-27 00:40:00,
2013-08-26 19:45:00,85.1,68.2,30.07,ESE,102,0.0,0.0,57,0.00,,,0.00,VWS V13.01,2013-08-27 00:45:00,
2013-08-26 19:50:00,84.6,67.7,30.07,ESE,102,0.0,0.0,57,0.00,,,0.00,VWS V13.01,2013-08-27 00:50:00,
2013-08-26 19:55:00,84.4,67.5,30.07,ESE,102,0.0,0.0,57,0.00,,,0.00,VWS V13.01,2013-08-27 00:55:00,
2013-08-26 19:59:00,84.1,67.2,30.07,ESE,102,0.0,0.0,57,0.00,,,0.00,VWS V13.01,2013-08-27 00:59:00,
2013-08-26 20:04:00,83.9,67.0,30.07,ESE,102,0.0,0.0,57,0.00,,,0.00,VWS V13.01,2013-08-27 01:04:00,
2013-08-26 20:09:00,83.3,68.0,30.07,East,84,0.0,0.0,60,0.00,,,0.00,VWS V13.01,2013-08-27 01:09:00,
2013-08-26 20:14:00,82.6,67.3,30.07,East,84,0.0,0.0,60,0.00,,,0.00,VWS V13.01,2013-08-27 01:14:00,
2013-08-26 20:19:00,82.3,68.9,30.07,East,84,0.0,0.0,64,0.00,,,0.00,VWS V13.01,2013-08-27 01:19:00,
2013-08-26 20:24:00,81.7,68.8,30.07,East,84,0.0,0.0,65,0.00,,,0.00,VWS V13.01,2013-08-27 01:24:00,
2013-08-26 20:29:00,81.4,69.4,30.07,East,84,0.0,0.0,67,0.00,,,0.00,VWS V13.01,2013-08-27 01:29:00,
2013-08-26 20:34:00,80.8,68.8,30.07,East,84,0.0,0.0,67,0.00,,,0.00,VWS V13.01,2013-08-27 01:34:00,
2013-08-26 20:39:00,80.5,68.9,30.07,East,84,0.0,0.0,68,0.00,,,0.00,VWS V13.01,2013-08-27 01:39:00,
2013-08-26 20:44:00,79.7,69.1,30.07,East,84,0.0,0.0,70,0.00,,,0.00,VWS V13.01,2013-08-27 01:44:00,
2013-08-26 20:49:00,79.4,69.2,30.07,East,84,0.0,0.0,71,0.00,,,0.00,VWS V13.01,2013-08-27 01:49:00,
2013-08-26 20:54:00,78.8,68.7,30.07,East,84,0.0,0.0,71,0.00,,,0.00,VWS V13.01,2013-08-27 01:54:00,
2013-08-26 20:59:00,78.3,68.9,30.07,East,84,0.0,0.0,73,0.00,,,0.00,VWS V13.01,2013-08-27 01:59:00,
2013-08-26 21:04:00,77.6,69.0,30.07,East,84,0.0,0.0,75,0.00,,,0.00,VWS V13.01,2013-08-27 02:04:00,
2013-08-26 21:09:00,77.2,69.5,30.07,East,84,0.0,0.0,77,0.00,,,0.00,VWS V13.01,2013-08-27 02:09:00,
2013-08-26 21:14:00,76.9,69.1,30.10,East,84,0.0,0.0,77,0.00,,,0.00,VWS V13.01,2013-08-27 02:14:00,
2013-08-26 21:19:00,76.7,68.9,30.10,East,84,0.0,0.0,77,0.00,,,0.00,VWS V13.01,2013-08-27 02:19:00,
2013-08-26 21:24:00,76.5,69.1,30.10,East,84,0.0,0.0,78,0.00,,,0.00,VWS V13.01,2013-08-27 02:24:00,
2013-08-26 21:29:00,76.3,69.7,30.10,NE,46,0.0,0.0,80,0.00,,,0.00,VWS V13.01,2013-08-27 02:29:00,
2013-08-26 21:34:00,76.1,69.2,30.10,North,358,0.0,0.0,79,0.00,,,0.00,VWS V13.01,2013-08-27 02:34:00,
2013-08-26 21:39:00,76.0,69.0,30.10,North,358,0.0,0.0,79,0.00,,,0.00,VWS V13.01,2013-08-27 02:39:00,
2013-08-26 21:44:00,75.6,69.4,30.10,North,358,0.0,0.0,81,0.00,,,0.00,VWS V13.01,2013-08-27 02:44:00,
2013-08-26 21:49:00,75.2,69.7,30.10,North,358,0.0,0.0,83,0.00,,,0.00,VWS V13.01,2013-08-27 02:49:00,
2013-08-26 21:54:00,75.1,69.6,30.10,North,358,0.0,0.0,83,0.00,,,0.00,VWS V13.01,2013-08-27 02:54:00,
2013-08-26 21:59:00,74.9,69.4,30.10,North,358,0.0,0.0,83,0.00,,,0.00,VWS V13.01,2013-08-27 02:59:00,
2013-08-26 22:04:00,74.9,69.0,30.10,North,358,0.0,0.0,82,0.00,,,0.00,VWS V13.01,2013-08-27 03:04:00,
2013-08-26 22:09:00,74.7,68.8,30.10,North,358,0.0,0.0,82,0.00,,,0.00,VWS V13.01,2013-08-27 03:09:00,
2013-08-26 22:14:00,74.5,69.0,30.10,North,358,0.0,0.0,83,0.00,,,0.00,VWS V13.01,2013-08-27 03:14:00,
2013-08-26 22:19:00,74.3,68.8,30.10,North,358,0.0,0.0,83,0.00,,,0.00,VWS V13.01,2013-08-27 03:19:00,
2013-08-26 22:24:00,74.2,69.0,30.10,North,358,0.0,0.0,84,0.00,,,0.00,VWS V13.01,2013-08-27 03:24:00,
2013-08-26 22:29:00,73.8,69.0,30.10,North,358,0.0,0.0,85,0.00,,,0.00,VWS V13.01,2013-08-27 03:29:00,
2013-08-26 22:34:00,73.4,69.3,30.10,North,358,0.0,0.0,87,0.00,,,0.00,VWS V13.01,2013-08-27 03:34:00,
2013-08-26 22:39:00,73.3,69.2,30.10,North,358,0.0,0.0,87,0.00,,,0.00,VWS V13.01,2013-08-27 03:39:00,
2013-08-26 22:44:00,73.3,68.8,30.10,North,358,0.0,0.0,86,0.00,,,0.00,VWS V13.01,2013-08-27 03:44:00,
2013-08-26 22:49:00,73.3,68.8,30.10,North,358,0.0,0.0,86,0.00,,,0.00,VWS V13.01,2013-08-27 03:49:00,
2013-08-26 22:54:00,73.3,69.2,30.10,North,358,0.0,0.0,87,0.00,,,0.00,VWS V13.01,2013-08-27 03:54:00,
2013-08-26 22:59:00,73.3,69.2,30.10,North,358,0.0,0.0,87,0.00,,,0.00,VWS V13.01,2013-08-27 03:59:00,
2013-08-26 23:01:00,73.1,69.0,30.10,North,358,0.0,0.0,87,0.00,,,0.00,VWS V13.01,2013-08-27 04:01:00,
2013-08-26 23:06:00,73.1,68.7,30.10,North,358,0.0,0.0,86,0.00,,,0.00,VWS V13.01,2013-08-27 04:06:00,
2013-08-26 23:11:00,72.9,68.8,30.10,North,358,0.0,0.0,87,0.00,,,0.00,VWS V13.01,2013-08-27 04:11:00,
2013-08-26 23:16:00,72.7,69.0,30.07,North,358,0.0,0.0,88,0.00,,,0.00,VWS V13.01,2013-08-27 04:16:00,
2013-08-26 23:21:00,72.5,69.4,30.07,NNE,26,0.0,0.0,90,0.00,,,0.00,VWS V13.01,2013-08-27 04:21:00,
2013-08-26 23:26:00,72.4,69.6,30.07,NNE,29,0.0,0.0,91,0.00,,,0.00,VWS V13.01,2013-08-27 04:26:00,
2013-08-26 23:31:00,72.2,69.7,30.07,NNE,29,0.0,0.0,92,0.00,,,0.00,VWS V13.01,2013-08-27 04:31:00,
2013-08-26 23:36:00,72.0,69.6,30.07,NNE,28,0.0,0.0,92,0.00,,,0.00,VWS V13.01,2013-08-27 04:36:00,
2013-08-26 23:41:00,72.0,69.6,30.07,NNE,28,0.0,0.0,92,0.00,,,0.00,VWS V13.01,2013-08-27 04:41:00,
2013-08-26 23:46:00,72.0,69.6,30.07,NNE,28,0.0,0.0,92,0.00,,,0.00,VWS V13.01,2013-08-27 04:46:00,
2013-08-26 23:51:00,72.0,69.2,30.07,NNE,28,0.0,0.0,91,0.00,,,0.00,VWS V13.01,2013-08-27 04:51:00,
2013-08-26 23:56:00,71.8,69.1,30.07,NNE,28,0.0,0.0,91,0.00,,,0.00,VWS V13.01,2013-08-27 04:56:00,